Troy, AL

7:03 AM CDT on April 30, 2017 (GMT -0500)
Troy Municipal

Weather History for KTOI - March, 2014

Change the Weather History Date:

Sunday, March 30, 2014

  Actual Average Record
Temperature  
Mean Temperature 56 °F 59 °F  
Max Temperature 70 °F 73 °F 82 °F (1998)
Min Temperature 42 °F 46 °F 37 °F (2003)
Degree Days  
Heating Degree Days 9 6  
Month to date heating degree days 290 276  
Since 1 July heating degree days 2230 2195  
Cooling Degree Days 0 1  
Month to date cooling degree days 1 10  
Year to date cooling degree days 12 15  
Growing Degree Days 6 (Base 50)    
Moisture  
Dew Point 37 °F    
Average Humidity 53    
Maximum Humidity 83    
Minimum Humidity 23    
Precipitation  
Precipitation 0.00 in 0.21 in 1.61 in (2011)
Month to date precipitation 5.69 5.82  
Year to date precipitation 14.75 14.95  
Snow  
Snow 0.00 in - - ()
Month to date snowfall 0.0  
Since 1 July snowfall 0.3  
Snow Depth 0.00 in    
Sea Level Pressure  
Sea Level Pressure 30.15 in    
Wind  
Wind Speed 8 mph (NW)    
Max Wind Speed 21 mph    
Max Gust Speed 26 mph    
Visibility 10 miles    
Events      
T = Trace of Precipitation, MM = Missing Value Source: NWS Daily Summary

Daily Weather History Graph

Daily Weather History Graph

Search for Another Location

Airport or City:

Trip Planner

Search our weather history database for the weather conditions in past years. The results will help you decide how hot, cold, wet, or windy it might be!

Date:

Astronomy

Mar. 30, 2014 Rise Set
Actual Time 6:35 AM CDT 7:02 PM CDT
Civil Twilight 6:10 AM CDT 7:26 PM CDT
Nautical Twilight 5:41 AM CDT 7:55 PM CDT
Astronomical Twilight 5:12 AM CDT 8:24 PM CDT
Moon 6:20 AM CDT 7:12 PM CDT
Length of Visible Light 13h 16m
Length of Day
12h 27m
Waning Crescent, 0% of the Moon is Illuminated
Mar 30
Waning Crescent
Mar 30
New
Apr 7
First Quarter
Apr 15
Full
Apr 22
Last Quarter

Hourly Weather History & Observations

Time (CDT) Temp. Windchill Dew Point Humidity Pressure Visibility Wind Dir Wind Speed Gust Speed Precip Events Conditions
12:53 AM 48.9 °F - 39.0 °F 69% 30.13 in 10.0 mi NW 6.9 mph - N/A   Clear
1:53 AM 46.9 °F - 39.0 °F 74% 30.13 in 10.0 mi NNW 9.2 mph - N/A   Clear
2:53 AM 46.0 °F 42.5 °F 39.0 °F 76% 30.12 in 10.0 mi NW 6.9 mph - N/A   Partly Cloudy
3:53 AM 44.1 °F 39.5 °F 39.0 °F 82% 30.11 in 10.0 mi NW 8.1 mph - N/A   Clear
4:53 AM 43.0 °F 38.2 °F 37.9 °F 82% 30.13 in 10.0 mi WNW 8.1 mph - N/A   Clear
5:53 AM 43.0 °F 37.7 °F 37.9 °F 82% 30.14 in 10.0 mi NW 9.2 mph - N/A   Clear
6:53 AM 42.1 °F 37.7 °F 37.0 °F 82% 30.17 in 10.0 mi North 6.9 mph - N/A   Clear
7:53 AM 46.0 °F 40.6 °F 37.9 °F 73% 30.19 in 10.0 mi NNW 11.5 mph - N/A   Clear
8:53 AM 48.9 °F - 37.9 °F 66% 30.21 in 10.0 mi NNW 17.3 mph 25.3 mph N/A   Clear
9:53 AM 52.0 °F - 37.0 °F 57% 30.22 in 10.0 mi NNW 10.4 mph - N/A   Clear
10:53 AM 57.0 °F - 36.0 °F 45% 30.22 in 10.0 mi North 13.8 mph - N/A   Clear
11:53 AM 60.1 °F - 36.0 °F 41% 30.20 in 10.0 mi North - - N/A   Clear
12:53 PM 63.0 °F - 35.1 °F 35% 30.17 in 10.0 mi NW 10.4 mph - N/A   Clear
1:53 PM 66.0 °F - 33.1 °F 29% 30.14 in 10.0 mi WNW 15.0 mph 19.6 mph N/A   Clear
2:53 PM 66.9 °F - 34.0 °F 30% 30.13 in 10.0 mi NNW 10.4 mph - N/A   Clear
3:53 PM 69.1 °F - 33.1 °F 26% 30.12 in 10.0 mi NNW 15.0 mph 19.6 mph N/A   Clear
4:53 PM 69.1 °F - 30.9 °F 24% 30.12 in 10.0 mi NNW 9.2 mph - N/A   Clear
5:53 PM 68.0 °F - 34.0 °F 28% 30.12 in 10.0 mi NW 10.4 mph - N/A   Clear
6:53 PM 64.9 °F - 34.0 °F 32% 30.12 in 10.0 mi Calm Calm - N/A   Clear
7:53 PM 55.0 °F - 41.0 °F 59% 30.14 in 10.0 mi Calm Calm - N/A   Clear
8:53 PM 50.0 °F - 41.0 °F 71% 30.15 in 10.0 mi Calm Calm - N/A   Clear
9:53 PM 48.9 °F - 42.1 °F 77% 30.16 in 10.0 mi Calm Calm - N/A   Clear
10:53 PM 45.0 °F - 39.9 °F 82% 30.16 in 10.0 mi Calm Calm - N/A   Clear
11:53 PM 45.0 °F - 39.0 °F 80% 30.16 in 10.0 mi Calm Calm - N/A   Clear